Regional Weather Roundup
Issued by NWS Charleston, SC

Current Version | Previous Version | Graphics & Text | Print | Product List | Glossary On
Versions: 1 2 3 4 5 6 7 8 9 10 11 12 13 14 15 16 17 18 19 20 21 22 23 24 25 26 27 28 29 30 31 32 33 34 35 36 37 38 39 40 41 42 43 44 45 46 47 48 49 50
000
ASUS42 KCHS 201812
RWRCHS

REGIONAL WEATHER ROUNDUP
NATIONAL WEATHER SERVICE CHARLESTON SC
100 PM EST MON FEB 20 2017

NOTE: "FAIR" INDICATES FEW OR NO CLOUDS BELOW 12,000 FEET WITH NO
SIGNIFICANT WEATHER AND/OR OBSTRUCTIONS TO VISIBILITY.

NOT ALL STATIONS ARE QUALITY CONTROLLED. USE DATA WITH CAUTION...
ESPECIALLY DEWPOINT OBSERVATIONS.

SCZ027-030-031-034>040-042>050-201900-
...SOUTHEAST SOUTH CAROLINA...

CITY           SKY/WX    TMP DP  RH WIND       PRES   REMARKS
N CHARLESTON   MOSUNNY   75  46  35 VRB3      30.16F
6HR MIN TEMP:  49; 6HR MAX TEMP:  75;

WATERFRONT PRK   N/A     64  55  72 SE7       30.16F
MOUNT PLEASANT FAIR      72  52  49 E3        30.16F
JOHNS ISLAND   FAIR      72  48  43 E8        30.17F
PINOPOLIS        N/A     61  52  72 VRB3      30.09F
MONCKS CORNER  FAIR      70  45  40 CALM      30.16F
SUMMERVILLE    FAIR      72  45  37 E5        30.17F
BEAUFORT MCAS  MOSUNNY   75  51  43 E6        30.16F
6HR MIN TEMP:  49; 6HR MAX TEMP:  75;

BEAUFORT ARPT  FAIR      72  48  43 E7        30.16F
HILTON HEAD IS MOSUNNY   72  50  46 E5        30.18F
WALTERBORO     CLEAR     73  45  35 E5        30.16F
ALLENDALE      FAIR      72  45  37 CALM      30.16F

...SOUTHERN MIDLANDS AND PEE DEE...

CITY           SKY/WX    TMP DP  RH WIND       PRES   REMARKS
GEORGETOWN     FAIR      68  43  40 NE7       30.19F
KINGSTREE      FAIR      70  43  37 CALM      30.18F
ORANGEBURG     SUNNY     71  42  35 VRB3      30.17F
6HR MIN TEMP:  45; 6HR MAX TEMP:  72;

BARNWELL       FAIR      73  45  35 CALM      30.17F
AIKEN          FAIR      70  41  35 E8        30.20F
MANNING        FAIR      70  45  40 MISG      30.17F
COLUMBIA       MOSUNNY   74  41  30 VRB5      30.16F
6HR MIN TEMP:  41; 6HR MAX TEMP:  74;

SUMTER         SUNNY     71  43  35 E5G17     30.15F
6HR MIN TEMP:  46; 6HR MAX TEMP:  71;

FLORENCE       SUNNY     70  45  40 CALM      30.18F
6HR MIN TEMP:  43; 6HR MAX TEMP:  71;

MYRTLE BEACH   SUNNY     68  45  42 E10       30.18F
N MYRTLE BEACH SUNNY     66  46  48 SE8       30.17F
6HR MIN TEMP:  50; 6HR MAX TEMP:  69;


$$

GAZ063-065-086>088-099>101-113>116-118-119-134>141-150-201900-
...SOUTHEAST GEORGIA...

CITY           SKY/WX    TMP DP  RH WIND       PRES   REMARKS
SAVANNAH ARPT  PTSUNNY   76  45  33 E3        30.17F
6HR MIN TEMP:  49; 6HR MAX TEMP:  77;

HUNTER AAF     MOSUNNY   75  53  45 SE8       30.15F
6HR MIN TEMP:  50; 6HR MAX TEMP:  75;

FORT STEWART   MOSUNNY   75  48  38 CALM      30.14F
6HR MIN TEMP:  46; 6HR MAX TEMP:  75;

STATESBORO     MOSUNNY   75  51  43 E3        30.16F
SYLVANIA       MOCLDY   N/A N/A N/A E5        30.18F
CLAXTON        FAIR      75  50  42 CALM      30.16F

...CSRA...CENTRAL AND FAR SOUTHEAST GEORGIA...

CITY           SKY/WX    TMP DP  RH WIND       PRES   REMARKS
THOMSON        MOSUNNY   72  48  42 SE3       30.22F
AUGUSTA-BUSH   MOSUNNY   74  43  32 VRB3      30.17F
6HR MIN TEMP:  42; 6HR MAX TEMP:  74;

AUGUSTA-DANIEL MOSUNNY   71  40  32 VRB3      30.18F
SWAINSBORO     FAIR      73  46  38 S3        30.17F
VIDALIA        SUNNY     75  54  46 NE5       30.17F
EASTMAN        FAIR      76  34  21 E5        30.18F
HAZLEHURST     FAIR      74  53  47 SE6       30.16F
ALMA           MOSUNNY   75  53  46 VRB6      30.15F
6HR MIN TEMP:  47; 6HR MAX TEMP:  75;

WAYCROSS       MOSUNNY   79  56  45 E7        30.15F
JESUP          FAIR      77  48  36 E5        30.16F
BAXLEY         FAIR      73  55  53 E3        30.15F
BRUNSWICK      SUNNY     73  52  46 SE7       30.18F
SAINT SIMONS   SUNNY     72  50  45 E9        30.17F
6HR MIN TEMP:  52; 6HR MAX TEMP:  72;


$$

SCZ027-028-034-036>038-045-046-048>050-GAZ119-141-201900-
...LAKE AND SUPPLEMENTAL COASTAL OBSERVATIONS...

STATION/POSITION TIME  TEMP    WIND        PRES    WAVE   SWELL
                       AIR SEA DIR/SP/G            HT/PER HT/PER/DIR
                 (UTC) (F)     (DEG/KT/KT) (MB)    (FT/S) (FT/S/D)
WINYAH BAY       1645   61      60/  6     1023.0
LAKE MURRAY      1720   67      CALM  /  2 1021.7
ACE BASIN NERRS  NOT AVBL
FORT PULASKI     1748   61 60   90/  7/  8 1022.4F
SAPELO ISLAND    1700   73      80/  5     1022.0

$$

ANZ835-935-AMZ111-154-330-350-352-354-370-450-454-472-201900-
...C-MAN AND BUOY OBSERVATIONS...

STATION/POSITION TIME  TEMP    WIND        PRES    WAVE   SWELL
                       AIR SEA DIR/SP/G            HT/PER HT/PER/DIR
                 (UTC) (F)     (DEG/KT/KT) (MB)    (FT/S) (FT/S/D)
BUOY 41004       1650   65 69   40/ 10/ 12 1021.5    2/ 4
BUOY 41008       1650   63 62   30/  6/  6 1022.0    1
FOLLY BEACH CMAN 1700   61      50/  7/  9 1023.2S
CAPERS NEARSHORE 1708   59 59   50/ 10/ 14 1022.2F
FRIPP NEARSHORE  1708   60 60   50/ 10/ 12 1022.2F


STATION/POSITION TIME  TEMP    WIND        PRES    WAVE   SWELL
                       AIR SEA DIR/SP/G            HT/PER HT/PER/DIR
                 (UTC) (F)     (DEG/KT/KT) (MB)    (FT/S) (FT/S/D)
5E ST. MARYS GA  1730      65                N/A     1
FRYING PAN BUOY  1750   63 65   30/ 12/ 14 1021.0F   2/ 4
BUOY 41025       1750   58 63   10/ 17/ 19 1021.2F   3/ 5
CAPE LOOKOUT NC  1800   58      40/ 14/ 15 1021.5F
BUOY 41002       1750   70 71   30/ 17/ 19 1018.3F   5/ 7
BUOY 41010       NOT AVBL
ST AUGUSTINE FL  1800   66 67   20/  6/  7 1022.0F


$$



USA.gov is the U.S. government's official web portal to all federal, state and local government web resources and services.